Location: Bord�res
(43.2000°N, 0.2167°W)
Time: 11:03:59
(UTC+00:00)

YAOGAN 1 - Pass Details

Date: 03 March 2021
Orbit: 618 x 620 km, 97.9° (Epoch: 20 April)

Event Time Altitude Azimuth Distance (km) Brightness Sun altitude
Rises 19:12:53 0° 183° (S) 2,882 6.0 -15.4°
Reaches altitude 10° 19:15:09 10° 190° (S) 1,981 5.2 -15.8°
Maximum altitude 19:19:14 41° 261° (W) 898 3.9 -16.6°
Drops below altitude 10° 19:23:21 10° 333° (NNW) 1,997 5.6 -17.3°
Sets 19:25:40 0° 341° (NNW) 2,908 6.4 -17.7°
